KOREASAT 6

Last updated on Thu Aug 13 2026 00:02:58 GMT+0000 (Coordinated Universal Time)

1 37265U 10070B 26224.58100432 .00000000 00000+0 00000+0 0 9998 2 37265 0.0248 107.7137 0001978 37.2712 185.0978 1.00269685 57335
UTC large
Height (km)
Speed (km/s)
/
Latitude / Longitude
Inclination (degrees)
Orbital Period (minutes)
Azimuth
Elevation
Range (km)
Doppler Factor

Next 0 passes for location: London (51.5072 / 0.1276)

No passes found over London.
KOREASAT 6